User: anonymous
Location: Prairie State College
(41.5244°N, 87.6382°W)
Time: 10:16:45
(UTC-05:00)
Language:

ARGOS Delta rocket - Orbit

View from above orbital plane
View from above orbital plane
View from above satellite
View from above satellite

Ground track
Ground track

The orbit data is extracted from the following two-line orbital elements,

1 25637U 99008D   14205.98834675  .00000061  00000-0  22659-4 0  5352
2 25637 096.4751 338.9814 0144775 047.2012 087.9315 14.45913419812653
Epoch (UTC): 24 July 2014 23:43:13
Eccentricity: 0.0144775
inclination: 96.4751°
perigee height: 636 km
apogee height: 842 km
right ascension of ascending node: 338.9814°
argument of perigee: 47.2012°
revolutions per day: 14.45913419
mean anomaly at epoch: 87.9315°
orbit number at epoch: 81265

The dashed part of the orbit path shows where the satellite is in the earth's shadow,  

DLR